Романовка

Россия / Волгоградская область     49°46′54″N   45°01′09″E
темп.,
°C
ветер,
м/с
пор.,
м/с
влажн.,
%
обл.,
%
осадки,
мм/ч
давл.,
гПа
погр.,
м
14 мая, пт
пт1400:00+18в1263100 0.0 101711
03:00+17в336696 0.0 101822
06:00+18в357016 0.0 1018114
09:00+23вюв45570 0.0 1018465
12:00+27ююв79385 0.0 10171023
15:00+29юв8103491 0.0 10171660
18:00+27юв510438 0.0 1015242
21:00+21ююв41547100 0.0 1016250
15 мая, сб
сб1500:00+19ююв4164375 0.0 1017292
03:00+17юв311405 0.0 1017162
06:00+18юв394221 0.0 1018200
09:00+24юв6103428 0.0 1017470
12:00+29ююв71025100 0.0 10171264
15:00+30ююв711219 0.0 10162718
18:00+26юв510385 0.0 1015203
21:00+21юв344511 0.0 101645
16 мая, вс
вс1600:00+19ююв334755 0.0 101622
03:00+17юв334410 0.0 101616
06:00+18юв275167 0.0 1017170
09:00+24юв46375 0.0 1016383
12:00+29юв672870 0.0 10161276
15:00+31ююв59255 0.0 10143047
18:00+28юв363743 0.0 1013123
21:00+22юв51547100 0.0 1014329
17 мая, пн
пн1700:00+20юв3437100 0.0 101440
03:00+18вюв3335100 0.0 101537
06:00+18в374375 0.0 1015144
09:00+24вюв61033100 0.0 1014521
12:00+29юв8102692 0.0 10141369
15:00+30юв8102011 0.0 10133034
18:00+27вюв5103327 0.0 1012238
21:00+21в4123943 0.0 1014169
18 мая, вт
вт1800:00+19вюв33385 0.0 101436
03:00+18вюв333653 0.0 101416
06:00+19всв374156 0.0 1013115
09:00+25вюв693035 0.0 1013533
12:00+30юв7102314 0.0 10121166
15:00+32ююв7101837 0.0 10123576
18:00+27ююв4735100 0.0 1011113
21:00+23юв3335100 0.0 101214